ミュラー第5彗星

173P/Mueller 5 (2021)

English version
Home page
Updated on March 26, 2020

---------------------------------------------------------------------

・ プロフィール

・ 写真集

・ 軌道要素

Epoch 2021 Dec. 12.0 TT = JDT 2459560.5
T 2021 Dec. 16.71007 TT                                 Rudenko
q   4.2170790            (2000.0)            P               Q
n   0.07230306     Peri.   29.17955     -0.61742230     -0.73540472
a   5.7064357      Node   100.40027     +0.65540318     -0.67722221
e   0.2609960      Incl.   16.49278     +0.43501307     -0.02345144
P  13.6
From 732 observations 1992 Sept. 25-2020 Mar. 17, mean residual 0".7.

・ 光度変化

        m1 = -14 + 5 logΔ + 45 log r(t + 600)

---------------------------------------------------------------------

軌道要素はM.P.E.C. 2020-F67に掲載されたものです。
光度グラフはComet for Windowsで作成したものです。

---------------------------------------------------------------------

Copyright(C) Seiichi Yoshida (comet@aerith.net). All rights reserved.